Fairbanks, AK

11:40 PM AKDT on May 26, 2017 (GMT -0800)
Fairbanks International

Weather History for PAFA - December, 2014

Change the Weather History Date:

Wednesday, December 31, 2014

  Actual Average Record
Temperature  
Mean Temperature 26 °F -7 °F  
Max Temperature 37 °F 2 °F 39 °F (1969)
Min Temperature 15 °F -14 °F -59 °F (1912)
Degree Days  
Heating Degree Days 39 72  
Month to date heating degree days 1757 2141  
Since 1 July heating degree days 5475 6272  
Cooling Degree Days 0 0  
Month to date cooling degree days 0 0  
Year to date cooling degree days 27 61  
Moisture  
Dew Point 25 °F    
Average Humidity 86    
Maximum Humidity 92    
Minimum Humidity 75    
Precipitation  
Precipitation 0.02 in 0.02 in 0.28 in (1905)
Month to date precipitation 0.93 0.64  
Year to date precipitation 17.16 10.81  
Snow  
Snow 0.30 in 0.40 in 15.00 in (2004)
Month to date snowfall 15.2 12.1  
Since 1 July snowfall 25.0 37.9  
Snow Depth 10.00 in    
Sea Level Pressure  
Sea Level Pressure 30.21 in    
Wind  
Wind Speed 1 mph (NE)    
Max Wind Speed 7 mph    
Max Gust Speed -    
Visibility 5 miles    
Events Fog , Rain , Snow    
T = Trace of Precipitation, MM = Missing Value Source: NWS Daily Summary

Daily Weather History Graph

Daily Weather History Graph

Search for Another Location

Airport or City:

Trip Planner

Search our weather history database for the weather conditions in past years. The results will help you decide how hot, cold, wet, or windy it might be!

Date:

Astronomy

Dec. 31, 2014 Rise Set
Actual Time 10:55 AM AKST 2:54 PM AKST
Civil Twilight 9:33 AM AKST 4:16 PM AKST
Nautical Twilight 8:22 AM AKST 5:27 PM AKST
Astronomical Twilight 7:21 AM AKST 6:28 PM AKST
Moon 1:06 PM AKST (12/31) 5:12 AM AKST (12/31)
Length of Visible Light 6h 43m
Length of Day
3h 58m
Waxing Gibbous, 81% of the Moon is Illuminated
Dec 31
Waxing Gibbous
Jan 4
Full
Jan 13
Last Quarter
Jan 20
New
Jan 26
First Quarter

Hourly Weather History & Observations

Time (AKST) Temp. Windchill Dew Point Humidity Pressure Visibility Wind Dir Wind Speed Gust Speed Precip Events Conditions
12:53 AM 19.9 °F - 15.1 °F 81% 29.99 in 10.0 mi Calm Calm - N/A   Mostly Cloudy
1:53 AM 28.9 °F - 24.1 °F 82% 30.02 in 9.0 mi Calm Calm - N/A Rain Light Freezing Rain
2:19 AM 34.0 °F 29.8 °F 30.0 °F 85% 30.01 in 10.0 mi WNW 4.6 mph - N/A Rain Light Freezing Rain
2:53 AM 35.1 °F - 30.0 °F 82% 30.05 in 10.0 mi Calm Calm - N/A   Overcast
3:27 AM 34.0 °F - 30.0 °F 85% 30.04 in 10.0 mi Calm Calm - N/A Rain Light Freezing Rain
3:53 AM 34.0 °F 31.0 °F 30.9 °F 89% 30.08 in 10.0 mi South 3.5 mph - N/A Snow Light Snow
4:53 AM 28.9 °F 21.9 °F 25.0 °F 85% 30.09 in 10.0 mi NE 6.9 mph - N/A   Overcast
5:53 AM 30.0 °F 25.2 °F 25.0 °F 82% 30.12 in 10.0 mi NNE 4.6 mph - N/A   Overcast
6:53 AM 32.0 °F - 28.0 °F 85% 30.12 in 10.0 mi Calm Calm - N/A   Overcast
7:53 AM 28.0 °F 24.2 °F 24.1 °F 85% 30.14 in 10.0 mi NE 3.5 mph - N/A   Overcast
8:53 AM 28.0 °F - 25.0 °F 88% 30.17 in 10.0 mi Calm Calm - N/A Rain Light Freezing Rain
9:07 AM 25.0 °F - 21.9 °F 88% 30.15 in 10.0 mi Calm Calm - N/A Snow Light Snow
9:53 AM 25.0 °F - 23.0 °F 92% 30.20 in 10.0 mi Calm Calm - N/A Snow Light Snow
10:53 AM 26.1 °F 20.5 °F 21.9 °F 84% 30.23 in 10.0 mi NE 4.6 mph - N/A Snow Light Snow
11:37 AM 30.0 °F - 27.0 °F 88% 30.21 in 1.5 mi Calm Calm - N/A Snow Light Snow
11:53 AM 28.9 °F - 26.1 °F 89% 30.25 in 1.0 mi Calm Calm - N/A Snow Light Snow
12:53 PM 28.9 °F - 25.0 °F 85% 30.26 in 1.5 mi Calm Calm - N/A Snow Light Snow
1:24 PM 30.0 °F 25.2 °F 26.1 °F 85% 30.23 in 2.0 mi NNE 4.6 mph - N/A Snow Light Snow
1:53 PM 30.0 °F 25.2 °F 26.1 °F 85% 30.27 in 4.0 mi NNE 4.6 mph - N/A Snow Light Snow
2:53 PM 30.0 °F - 27.0 °F 88% 30.28 in 3.0 mi Calm Calm - N/A Snow Light Snow
3:37 PM 28.9 °F - 25.0 °F 85% 30.26 in 4.0 mi Calm Calm - N/A Snow Light Snow
3:53 PM 28.9 °F - 26.1 °F 89% 30.29 in 4.0 mi Calm Calm - N/A Snow Light Snow
4:53 PM 27.0 °F - 24.1 °F 89% 30.30 in 5.0 mi Calm Calm - N/A   Mostly Cloudy
5:53 PM 28.9 °F 23.9 °F 26.1 °F 89% 30.30 in 5.0 mi South 4.6 mph - N/A   Mostly Cloudy
6:53 PM 30.9 °F 26.2 °F 28.0 °F 89% 30.30 in 1.0 mi SSW 4.6 mph - N/A   Overcast
7:22 PM 28.0 °F - 25.0 °F 88% 30.28 in 0.5 mi Calm Calm - N/A   Mostly Cloudy
7:37 PM 28.0 °F 24.2 °F 24.1 °F 85% 30.28 in 2.0 mi NE 3.5 mph - N/A   Mostly Cloudy
7:53 PM 27.0 °F - 25.0 °F 92% 30.31 in 1.5 mi Calm Calm - N/A Snow Light Snow
8:02 PM 28.0 °F - 25.0 °F 88% 30.28 in 0.5 mi Calm Calm - N/A Fog , Snow Light Snow
8:32 PM 27.0 °F 21.6 °F 24.1 °F 89% 30.28 in 0.2 mi NE 4.6 mph - N/A Fog , Snow Light Snow
8:53 PM 28.0 °F - 25.0 °F 88% 30.31 in 0.5 mi Calm Calm - N/A Fog Light Freezing Fog
9:16 PM 27.0 °F - 24.1 °F 89% 30.28 in 1.0 mi Calm Calm - N/A   Mostly Cloudy
9:43 PM 27.0 °F 23.0 °F 23.0 °F 85% 30.28 in 0.5 mi East 3.5 mph - N/A Fog Light Freezing Fog
9:53 PM 27.0 °F - 24.1 °F 89% 30.32 in 0.5 mi Calm Calm - N/A Fog Light Freezing Fog
10:20 PM 28.0 °F - 25.0 °F 88% 30.28 in 0.2 mi Calm Calm - N/A Fog Light Freezing Fog
10:39 PM 28.0 °F - 26.1 °F 92% 30.28 in 0.2 mi Calm Calm - N/A Fog Light Freezing Fog
10:53 PM 28.0 °F - 25.0 °F 88% 30.31 in 0.2 mi Calm Calm - N/A Fog Light Freezing Fog
11:53 PM 28.0 °F - 25.0 °F 88% 30.31 in 0.5 mi Calm Calm - N/A Fog Light Freezing Fog